Flag Weather past 2 weeks in Kingston, Ontario, Canada

Now
23 °F

Partly cloudy.


Feels Like: 17 °F
Forecast: 18 / 37 °F
Wind: 5 mph from Northwest

Location: Kingston

Current Time: Nov 28, 2014 at 11:18:41 PM

Latest Report: Nov 28, 2014 at 10:00 PM


Visibility: 15 mi

Pressure: 30.22 "Hg

Humidity: 68%

Dew point: 14 °F

Location of KingstonLocation

Historic Weather in Kingston — Graph

°F

Kingston temperature yesterday

Maximum temperature yesterday: 30 °F (at 11:00 AM)
Minimum temperature yesterday: 23 °F (at 6:00 AM)
Average temperature yesterday: 27 °F

Past Weeks' High & Low Weather Summary

 TemperatureHumidityPressure
High57 °F (Nov 24, 2:00 PM)100% (Nov 16, 10:00 PM)30.42 "Hg (Nov 16, 10:00 PM)
Low14 °F (Nov 21, 7:00 AM)43% (Nov 21, 2:00 PM)29.24 "Hg (Nov 24, 3:00 PM)
Average33 °F73%29.97 "Hg
* Reported Nov 13 10:00 PM — Nov 28 10:00 PM, Kingston, Weather by CustomWeather, © 2014

Note: Actual official high and low records may vary slightly from our data, if they occured in-between our weather recording intervals... More about our weather records

Advertising

Kingston weather history for previous 24 hours

 ConditionsComfort  
Time TempWeatherWind HumidityBarometerVisibility
10:00 PM
Nov 28
23 °FPartly cloudy.5 mph68%30.22 "Hg15 mi
9:00 PM23 °FPassing clouds.6 mph68%30.22 "Hg15 mi
8:00 PM23 °FPassing clouds.7 mph63%30.23 "Hg15 mi
7:00 PM23 °FPassing clouds.7 mph63%30.23 "Hg15 mi
6:00 PM23 °FPartly cloudy.7 mph63%30.22 "Hg15 mi
5:00 PM25 °FPassing clouds.8 mph59%30.21 "Hg15 mi
4:00 PM25 °FPartly sunny.10 mph59%30.20 "Hg15 mi
3:00 PM27 °FScattered showers. Partly sunny.9 mph59%30.19 "Hg15 mi
2:00 PM27 °FSnow flurries. Partly sunny.13 mph59%30.18 "Hg15 mi
1:00 PM25 °FSnow flurries. Partly sunny.10 mph69%30.18 "Hg10 mi
12:00 PM25 °FScattered showers. Scattered clouds.8 mph69%30.19 "Hg15 mi
11:00 AM25 °FScattered showers. Scattered clouds.14 mph69%30.20 "Hg15 mi
10:00 AM23 °FScattered clouds.12 mph80%30.21 "Hg15 mi
9:00 AM23 °FPassing clouds.10 mph80%30.20 "Hg15 mi
8:00 AM21 °FPartly sunny.8 mph86%30.19 "Hg15 mi
7:00 AM19 °FPartly cloudy.7 mph93%30.18 "Hg15 mi
6:00 AM19 °FPassing clouds.7 mph93%30.16 "Hg15 mi
11:00 PM
Nov 27
25 °FOvercast.5 mph80%30.09 "Hg15 mi
Weather by CustomWeather, © 2014

See weather overviewHow to use our weather pages